Location: Eboldshausen
(51.7766°N, 10.0050°E)
Time: 08:07:17
(UTC+00:00)

BlueWalker 3 - Pass Details

Date: 15 June 2024
Orbit: 480 x 491 km, 53.2° (Epoch: 22 July)

Event Time Altitude Azimuth Distance (km) Brightness Sun altitude
Rises 01:06:22 0° 271° (W) 2,538 5.3 -11.4°
Reaches altitude 10° 01:08:33 10° 274° (W) 1,658 4.4 -11.3°
Maximum altitude 01:12:16 68° 359° (N) 521 2.2 -11.0°
Drops below altitude 10° 01:16:00 10° 83° (E) 1,661 5.1 -10.8°
Sets 01:18:11 0° 86° (E) 2,542 6.0 -10.6°
